Change the Weather History Date:

Monday, December 9, 2013

  Actual Average Record
Temperature  
Mean Temperature 38 °F -  
Max Temperature 41 °F 39 °F 55 °F (1960)
Min Temperature 36 °F 32 °F 9 °F (1977)
Degree Days  
Heating Degree Days 26    
Moisture  
Dew Point 36 °F    
Average Humidity 88    
Maximum Humidity 97    
Minimum Humidity 79    
Precipitation  
Precipitation 0.11 in - - ()
Sea Level Pressure  
Sea Level Pressure 30.37 in    
Wind  
Wind Speed 3 mph (East)    
Max Wind Speed 9 mph    
Max Gust Speed -    
Visibility 10 miles    
Events Rain    
Averages and records for this station are not official NWS values.
T = Trace of Precipitation, MM = Missing Value Source: NWS Daily Summary

Daily Weather History Graph

Daily Weather History Graph

Search for Another Location

Airport or City:

Trip Planner

Search our weather history database for the weather conditions in past years. The results will help you decide how hot, cold, wet, or windy it might be!

Date:

Astronomy

Dec. 09, 2013 Rise Set
Actual Time 8:27 AM AKST 3:20 PM AKST
Civil Twilight 7:38 AM AKST 4:08 PM AKST
Nautical Twilight 6:48 AM AKST 4:59 PM AKST
Astronomical Twilight 6:01 AM AKST 5:46 PM AKST
Moon 12:09 PM AKST (12/9) No Moon Set
Length of Visible Light 8h 29m
Length of Day
6h 52m
First Quarter, 52% of the Moon is Illuminated
Dec 9
First Quarter
Dec 17
Full
Dec 25
Last Quarter
Jan 1
New
Jan 7
First Quarter

Hourly Weather History & Observations

Time (AKST) Temp. Windchill Dew Point Humidity Pressure Visibility Wind Dir Wind Speed Gust Speed Precip Events Conditions
12:00 AM 41.0 °F - 37.9 °F 89% 30.47 in 5.0 mi Calm Calm - 0.00 in Rain Light Rain
12:53 AM 39.0 °F 36.8 °F 37.0 °F 93% 30.46 in 5.0 mi North 3.5 mph - 0.03 in Rain Rain
1:53 AM 39.0 °F 36.8 °F 36.0 °F 89% 30.45 in 8.0 mi East 3.5 mph - 0.03 in Rain Light Rain
2:16 AM 39.0 °F 36.8 °F 36.0 °F 89% 30.44 in 8.0 mi East 3.5 mph - 0.00 in   Mostly Cloudy
2:53 AM 39.0 °F 36.8 °F 36.0 °F 89% 30.44 in 10.0 mi ESE 3.5 mph - 0.00 in   Overcast
3:26 AM 39.0 °F - 36.0 °F 89% 30.43 in 10.0 mi Calm Calm - 0.01 in Rain Light Rain
3:38 AM 37.9 °F 33.5 °F 35.1 °F 89% 30.42 in 10.0 mi East 5.8 mph - 0.01 in   Overcast
3:53 AM 37.9 °F 34.4 °F 35.1 °F 89% 30.42 in 10.0 mi East 4.6 mph - 0.01 in Rain Light Rain
4:01 AM 37.9 °F 35.5 °F 35.1 °F 89% 30.42 in 10.0 mi East 3.5 mph - 0.00 in   Overcast
4:53 AM 37.9 °F 35.5 °F 35.1 °F 89% 30.42 in 10.0 mi NE 3.5 mph - 0.02 in Rain Light Rain
5:53 AM 37.9 °F - 36.0 °F 93% 30.41 in 9.0 mi Calm Calm - 0.01 in Rain Light Rain
6:05 AM 37.9 °F 33.5 °F 35.1 °F 89% 30.40 in 10.0 mi East 5.8 mph - 0.01 in Rain Light Rain
6:51 AM 37.4 °F 34.9 °F 35.6 °F 93% 30.40 in 10.0 mi East 3.5 mph - 0.01 in   Overcast
6:53 AM 37.9 °F - 35.1 °F 89% 30.40 in 10.0 mi Calm Calm - 0.01 in   Overcast
7:53 AM 39.0 °F - 37.0 °F 93% 30.39 in 10.0 mi Calm Calm - 0.00 in   Overcast
8:49 AM 41.0 °F 35.8 °F 35.6 °F 81% 30.38 in 10.0 mi West 8.1 mph - N/A   Overcast
8:53 AM 41.0 °F 35.2 °F 35.1 °F 79% 30.39 in 10.0 mi West 9.2 mph - N/A   Overcast
9:30 AM 41.0 °F 35.2 °F 35.1 °F 79% 30.38 in 10.0 mi West 9.2 mph - 0.00 in   Overcast
9:39 AM 41.0 °F 37.1 °F 35.1 °F 79% 30.38 in 10.0 mi WSW 5.8 mph - 0.00 in   Overcast
9:53 AM 41.0 °F 39.0 °F 36.0 °F 82% 30.39 in 10.0 mi WSW 3.5 mph - 0.00 in   Overcast
10:07 AM 41.0 °F 36.4 °F 35.1 °F 79% 30.38 in 10.0 mi WSW 6.9 mph - N/A   Overcast
10:27 AM 41.0 °F 38.0 °F 35.1 °F 79% 30.38 in 10.0 mi West 4.6 mph - N/A   Overcast
10:42 AM 41.0 °F 38.0 °F 35.1 °F 79% 30.38 in 10.0 mi WSW 4.6 mph - N/A   Overcast
10:53 AM 41.0 °F 38.0 °F 35.1 °F 79% 30.38 in 10.0 mi WSW 4.6 mph - N/A   Overcast
11:00 AM 41.0 °F - 35.1 °F 79% 30.38 in 10.0 mi Calm Calm - N/A   Overcast
11:19 AM 39.9 °F 36.7 °F 35.1 °F 83% 30.38 in 10.0 mi East 4.6 mph - 0.00 in   Overcast
11:27 AM 39.9 °F 36.7 °F 35.1 °F 83% 30.38 in 10.0 mi ENE 4.6 mph - 0.00 in   Overcast
11:53 AM 39.0 °F 34.8 °F 36.0 °F 89% 30.38 in 10.0 mi East 5.8 mph - 0.00 in Rain Light Rain
12:09 PM 39.0 °F 34.8 °F 36.0 °F 89% 30.38 in 10.0 mi East 5.8 mph - 0.00 in   Overcast
12:19 PM 39.9 °F 36.7 °F 36.0 °F 86% 30.37 in 10.0 mi East 4.6 mph - 0.00 in   Overcast
12:53 PM 39.0 °F 36.8 °F 36.0 °F 89% 30.37 in 10.0 mi East 3.5 mph - 0.00 in Rain Light Rain
1:53 PM 39.0 °F 35.7 °F 36.0 °F 89% 30.35 in 10.0 mi East 4.6 mph - 0.00 in   Overcast
2:53 PM 39.0 °F 35.7 °F 36.0 °F 89% 30.34 in 10.0 mi East 4.6 mph - N/A   Overcast
3:18 PM 37.9 °F 35.5 °F 36.0 °F 93% 30.34 in 10.0 mi ESE 3.5 mph - N/A   Overcast
3:53 PM 37.0 °F 33.3 °F 36.0 °F 96% 30.33 in 10.0 mi East 4.6 mph - N/A   Overcast
4:12 PM 37.0 °F 33.3 °F 36.0 °F 96% 30.33 in 10.0 mi ESE 4.6 mph - N/A   Overcast
4:53 PM 37.0 °F 32.4 °F 35.1 °F 93% 30.32 in 10.0 mi East 5.8 mph - N/A   Overcast
5:16 PM 37.0 °F 32.4 °F 35.1 °F 93% 30.32 in 10.0 mi East 5.8 mph - N/A   Overcast
5:23 PM 37.0 °F 33.3 °F 35.1 °F 93% 30.32 in 10.0 mi East 4.6 mph - N/A   Overcast
5:53 PM 37.0 °F 33.3 °F 35.1 °F 93% 30.32 in 10.0 mi East 4.6 mph - N/A   Overcast
6:53 PM 37.0 °F 33.3 °F 35.1 °F 93% 30.31 in 10.0 mi East 4.6 mph - N/A   Overcast
7:00 PM 37.0 °F 34.5 °F 35.1 °F 93% 30.31 in 10.0 mi East 3.5 mph - N/A   Overcast
7:53 PM 37.0 °F - 35.1 °F 93% 30.31 in 10.0 mi Calm Calm - N/A   Overcast
8:53 PM 36.0 °F 32.1 °F 35.1 °F 97% 30.30 in 10.0 mi ENE 4.6 mph - N/A   Overcast
9:53 PM 36.0 °F - 35.1 °F 97% 30.30 in 10.0 mi Calm Calm - N/A   Overcast
10:53 PM 37.0 °F 34.5 °F 35.1 °F 93% 30.30 in 10.0 mi ENE 3.5 mph - N/A   Overcast
11:53 PM 37.0 °F 34.5 °F 35.1 °F 93% 30.30 in 10.0 mi ESE 3.5 mph - N/A   Overcast